Charles City, IA

10:33 PM CDT on April 26, 2018 (GMT -0500)
Charles City Municipal

Weather History for KCCY - October, 2010

Change the Weather History Date:

Thursday, October 28, 2010

  Actual Average Record
Temperature  
Mean Temperature 34 °F -  
Max Temperature 39 °F 56 °F 73 °F (2016)
Min Temperature 28 °F 35 °F 19 °F (1967)
Degree Days  
Heating Degree Days 32    
Moisture  
Dew Point 30 °F    
Average Humidity 84    
Maximum Humidity 93    
Minimum Humidity 70    
Precipitation  
Precipitation 0.00 in - - ()
Sea Level Pressure  
Sea Level Pressure 30.18 in    
Wind  
Wind Speed 19 mph (WNW)    
Max Wind Speed 25 mph    
Max Gust Speed 32 mph    
Visibility 10 miles    
Events      
Averages and records for this station are not official NWS values.
T = Trace of Precipitation, MM = Missing Value Source: NWS Daily Summary

Daily Weather History Graph

Daily Weather History Graph

Search for Another Location

Airport or City:

Astronomy

Oct. 28, 2010 Rise Set
Actual Time 7:40 AM CDT 6:07 PM CDT
Civil Twilight 7:10 AM CDT 6:37 PM CDT
Nautical Twilight 6:37 AM CDT 7:10 PM CDT
Astronomical Twilight 6:04 AM CDT 7:43 PM CDT
Moon 10:34 PM CDT (10/28) 1:05 PM CDT (10/28)
Length of Visible Light 11h 26m
Length of Day
10h 27m
Waning Gibbous, 70% of the Moon is Illuminated
Oct 28
Waning Gibbous
Oct 30
Last Quarter
Nov 5
New
Nov 13
First Quarter
Nov 21
Full

Hourly Weather History & Observations

Time (CDT) Temp. Windchill Dew Point Humidity Pressure Visibility Wind Dir Wind Speed Gust Speed Precip Events Conditions
12:15 AM 37.4 °F 26.6 °F 32.0 °F 81% 29.88 in 10.0 mi WNW 21.9 mph 32.2 mph N/A   Overcast
12:35 AM 37.4 °F 26.6 °F 32.0 °F 81% 29.90 in 10.0 mi WNW 21.9 mph 28.8 mph N/A   Overcast
12:55 AM 37.4 °F 26.6 °F 32.0 °F 81% 29.91 in 10.0 mi WNW 21.9 mph 32.2 mph N/A   Overcast
1:15 AM 37.4 °F 26.4 °F 32.0 °F 81% 29.92 in 10.0 mi WNW 23.0 mph 28.8 mph N/A   Overcast
1:35 AM 37.4 °F 26.9 °F 32.0 °F 81% 29.93 in 10.0 mi WNW 20.7 mph 28.8 mph N/A   Overcast
1:55 AM 37.4 °F 26.1 °F 32.0 °F 81% 29.94 in 10.0 mi WNW 24.2 mph 32.2 mph N/A   Overcast
2:15 AM 37.4 °F 27.5 °F 32.0 °F 81% 29.95 in 10.0 mi WNW 18.4 mph 25.3 mph N/A   Overcast
2:35 AM 35.6 °F 24.5 °F 32.0 °F 87% 29.96 in 10.0 mi NW 20.7 mph 31.1 mph N/A   Overcast
2:55 AM 35.6 °F 24.8 °F 32.0 °F 87% 29.98 in 10.0 mi WNW 19.6 mph 31.1 mph N/A   Overcast
3:15 AM 35.6 °F 24.8 °F 32.0 °F 87% 29.98 in 10.0 mi WNW 19.6 mph 29.9 mph N/A   Overcast
3:35 AM 35.6 °F 24.8 °F 32.0 °F 87% 29.99 in 10.0 mi WNW 19.6 mph 28.8 mph N/A   Overcast
3:55 AM 35.6 °F 24.5 °F 32.0 °F 87% 30.00 in 10.0 mi WNW 20.7 mph 28.8 mph N/A   Overcast
4:15 AM 35.6 °F 24.5 °F 32.0 °F 87% 30.01 in 10.0 mi NW 20.7 mph 27.6 mph N/A   Overcast
4:35 AM 35.6 °F 24.5 °F 32.0 °F 87% 30.03 in 10.0 mi WNW 20.7 mph 28.8 mph N/A   Overcast
4:55 AM 35.6 °F 24.5 °F 32.0 °F 87% 30.04 in 10.0 mi WNW 20.7 mph 28.8 mph N/A   Overcast
5:15 AM 35.6 °F 25.5 °F 32.0 °F 87% 30.05 in 10.0 mi NW 17.3 mph 23.0 mph N/A   Overcast
5:35 AM 35.6 °F 24.8 °F 32.0 °F 87% 30.06 in 10.0 mi NW 19.6 mph 29.9 mph N/A   Overcast
5:55 AM 35.6 °F 24.5 °F 32.0 °F 87% 30.08 in 10.0 mi NW 20.7 mph 29.9 mph N/A   Overcast
6:15 AM 35.6 °F 26.2 °F 32.0 °F 87% 30.09 in 10.0 mi NW 15.0 mph 24.2 mph N/A   Overcast
6:35 AM 35.6 °F 24.8 °F 32.0 °F 87% 30.10 in 10.0 mi WNW 19.6 mph 29.9 mph N/A   Overcast
7:15 AM 33.8 °F 21.0 °F 32.0 °F 93% 30.13 in 10.0 mi WNW 25.3 mph 32.2 mph N/A   Overcast
7:35 AM 33.8 °F 21.9 °F 32.0 °F 93% 30.13 in 10.0 mi NW 21.9 mph 27.6 mph N/A   Overcast
7:55 AM 33.8 °F 22.8 °F 30.2 °F 87% 30.15 in 10.0 mi WNW 18.4 mph 26.5 mph N/A   Overcast
8:15 AM 33.8 °F 23.5 °F 30.2 °F 87% 30.16 in 10.0 mi WNW 16.1 mph 26.5 mph N/A   Overcast
8:35 AM 33.8 °F 21.0 °F 30.2 °F 87% 30.18 in 10.0 mi NW 25.3 mph 31.1 mph N/A   Overcast
8:55 AM 33.8 °F 22.2 °F 30.2 °F 87% 30.19 in 10.0 mi NW 20.7 mph 26.5 mph N/A   Overcast
9:15 AM 33.8 °F 22.2 °F 30.2 °F 87% 30.20 in 10.0 mi NW 20.7 mph 29.9 mph N/A   Overcast
9:35 AM 33.8 °F 22.2 °F 30.2 °F 87% 30.21 in 10.0 mi WNW 20.7 mph 24.2 mph N/A   Overcast
9:55 AM 33.8 °F 22.5 °F 30.2 °F 87% 30.22 in 10.0 mi WNW 19.6 mph 29.9 mph N/A   Overcast
10:15 AM 33.8 °F 22.2 °F 30.2 °F 87% 30.23 in 10.0 mi WNW 20.7 mph 28.8 mph N/A   Overcast
10:55 AM 32.0 °F 20.8 °F 30.2 °F 93% 30.24 in 10.0 mi WNW 17.3 mph 25.3 mph N/A   Overcast
11:15 AM 33.8 °F 22.8 °F 30.2 °F 87% 30.25 in 10.0 mi WNW 18.4 mph 26.5 mph N/A   Overcast
11:35 AM 33.8 °F 22.8 °F 30.2 °F 87% 30.25 in 10.0 mi WNW 18.4 mph 25.3 mph N/A   Overcast
11:55 AM 33.8 °F 23.5 °F 30.2 °F 87% 30.26 in 10.0 mi NW 16.1 mph 24.2 mph N/A   Overcast
12:15 PM 33.8 °F 22.5 °F 30.2 °F 87% 30.27 in 10.0 mi WNW 19.6 mph 26.5 mph N/A   Overcast
12:35 PM 33.8 °F 22.2 °F 30.2 °F 87% 30.27 in 10.0 mi WNW 20.7 mph 25.3 mph N/A   Overcast
12:55 PM 33.8 °F 21.9 °F 30.2 °F 87% 30.28 in 10.0 mi WNW 21.9 mph 27.6 mph N/A   Overcast
1:15 PM 33.8 °F 23.5 °F 30.2 °F 87% 30.27 in 10.0 mi WNW 16.1 mph 21.9 mph N/A   Overcast
1:35 PM 33.8 °F 23.2 °F 30.2 °F 87% 30.27 in 10.0 mi NW 17.3 mph 21.9 mph N/A   Overcast
1:55 PM 35.6 °F 25.5 °F 30.2 °F 81% 30.28 in 10.0 mi WNW 17.3 mph 23.0 mph N/A   Overcast
2:15 PM 33.8 °F 23.5 °F 30.2 °F 87% 30.28 in 10.0 mi WNW 16.1 mph 21.9 mph N/A   Overcast
2:35 PM 35.6 °F 25.9 °F 30.2 °F 81% 30.27 in 10.0 mi WNW 16.1 mph - N/A   Overcast
2:55 PM 37.4 °F 27.5 °F 30.2 °F 75% 30.27 in 10.0 mi WNW 18.4 mph 25.3 mph N/A   Overcast
3:15 PM 37.4 °F 27.8 °F 30.2 °F 75% 30.28 in 10.0 mi NW 17.3 mph - N/A   Scattered Clouds
3:35 PM 37.4 °F 26.6 °F 30.2 °F 75% 30.30 in 10.0 mi WNW 21.9 mph 31.1 mph N/A   Mostly Cloudy
3:55 PM 39.2 °F 30.2 °F 30.2 °F 70% 30.30 in 10.0 mi NW 17.3 mph 26.5 mph N/A   Mostly Cloudy
4:15 PM 37.4 °F 27.8 °F 30.2 °F 75% 30.30 in 10.0 mi WNW 17.3 mph 24.2 mph N/A   Scattered Clouds
4:35 PM 37.4 °F 27.8 °F 30.2 °F 75% 30.30 in 10.0 mi WNW 17.3 mph 24.2 mph N/A   Clear
4:55 PM 37.4 °F 28.2 °F 30.2 °F 75% 30.30 in 10.0 mi WNW 16.1 mph 19.6 mph N/A   Clear
5:15 PM 37.4 °F 27.5 °F 30.2 °F 75% 30.31 in 10.0 mi WNW 18.4 mph 23.0 mph N/A   Clear
5:35 PM 35.6 °F 25.5 °F 28.4 °F 75% 30.32 in 10.0 mi WNW 17.3 mph 20.7 mph N/A   Clear
5:55 PM 35.6 °F 27.1 °F 28.4 °F 75% 30.32 in 10.0 mi WNW 12.7 mph - N/A   Clear
6:15 PM 33.8 °F 25.8 °F 28.4 °F 81% 30.32 in 10.0 mi WNW 10.4 mph - N/A   Clear
6:35 PM 33.8 °F 25.8 °F 28.4 °F 81% 30.32 in 10.0 mi NW 10.4 mph - N/A   Clear
6:55 PM 33.8 °F 27.7 °F 28.4 °F 81% 30.32 in 10.0 mi NW 6.9 mph - N/A   Clear
7:15 PM 32.0 °F 26.4 °F 28.4 °F 87% 30.32 in 10.0 mi WNW 5.8 mph - N/A   Clear
7:35 PM 32.0 °F 26.4 °F 26.6 °F 80% 30.32 in 10.0 mi WNW 5.8 mph - N/A   Clear
7:55 PM 30.2 °F 24.3 °F 26.6 °F 86% 30.33 in 10.0 mi WNW 5.8 mph - N/A   Clear
8:15 PM 30.2 °F 24.3 °F 26.6 °F 86% 30.33 in 10.0 mi WNW 5.8 mph - N/A   Clear
8:35 PM 30.2 °F 23.4 °F 26.6 °F 86% 30.34 in 10.0 mi WNW 6.9 mph - N/A   Clear
8:55 PM 28.4 °F 21.2 °F 26.6 °F 93% 30.34 in 10.0 mi WNW 6.9 mph - N/A   Clear
9:15 PM 28.4 °F 21.2 °F 26.6 °F 93% 30.34 in 10.0 mi WNW 6.9 mph - N/A   Clear
9:35 PM 28.4 °F 21.2 °F 26.6 °F 93% 30.34 in 10.0 mi WNW 6.9 mph - N/A   Clear
9:55 PM 28.4 °F 21.2 °F 26.6 °F 93% 30.34 in 10.0 mi West 6.9 mph - N/A   Clear
10:15 PM 28.4 °F 22.2 °F 26.6 °F 93% 30.34 in 10.0 mi West 5.8 mph - N/A   Clear
10:35 PM 28.4 °F 22.2 °F 26.6 °F 93% 30.35 in 10.0 mi WNW 5.8 mph - N/A   Clear
10:55 PM 28.4 °F 23.3 °F 26.6 °F 93% 30.35 in 10.0 mi WNW 4.6 mph - N/A   Clear
11:15 PM 26.6 °F 20.0 °F 24.8 °F 93% 30.35 in 10.0 mi West 5.8 mph - N/A   Clear
11:35 PM 26.6 °F 19.1 °F 23.0 °F 86% 30.35 in 10.0 mi West 6.9 mph - N/A   Clear
11:55 PM 26.6 °F 20.0 °F 23.0 °F 86% 30.35 in 10.0 mi WNW 5.8 mph - N/A   Clear